owner,sensor,date,latitude,longitude,vertical_datum,wind_speed,wind_to_direction,wind_speed_of_gust,qcFlag 
WAVCIS,ioos:station:WAVCIS:CSI06:1,2010-08-01T00:00:00Z,28.8667,-90.4833,10.0,6.454,282.0,,'11111222,11111222,99999999' 
WAVCIS,ioos:station:WAVCIS:CSI06:1,2010-08-01T01:00:00Z,28.8667,-90.4833,10.0,5.501,274.0,,'11111222,11111222,99999999' 
WAVCIS,ioos:station:WAVCIS:CSI06:1,2010-08-01T02:00:00Z,28.8667,-90.4833,10.0,5.711,278.0,,'11111222,11111222,99999999' 
WAVCIS,ioos:station:WAVCIS:CSI06:1,2010-08-01T03:00:00Z,28.8667,-90.4833,10.0,5.545,278.0,,'11111222,11111222,99999999' 
WAVCIS,ioos:station:WAVCIS:CSI06:1,2010-08-01T04:00:00Z,28.8667,-90.4833,10.0,5.778,279.0,,'11111222,11111222,99999999' 
WAVCIS,ioos:station:WAVCIS:CSI06:1,2010-08-01T05:00:00Z,28.8667,-90.4833,10.0,6.344,279.0,,'11111222,11111222,99999999' 
WAVCIS,ioos:station:WAVCIS:CSI06:1,2010-08-01T06:00:00Z,28.8667,-90.4833,10.0,5.859,287.0,,'11111222,11111222,99999999' 
WAVCIS,ioos:station:WAVCIS:CSI06:1,2010-08-01T07:00:00Z,28.8667,-90.4833,10.0,6.52,299.0,,'11111222,11111222,99999999' 
WAVCIS,ioos:station:WAVCIS:CSI06:1,2010-08-01T08:00:00Z,28.8667,-90.4833,10.0,7.3,314.0,,'11111222,11111222,99999999' 
WAVCIS,ioos:station:WAVCIS:CSI06:1,2010-08-01T09:00:00Z,28.8667,-90.4833,10.0,7.46,313.0,,'11111222,11111222,99999999' 
WAVCIS,ioos:station:WAVCIS:CSI06:1,2010-08-01T10:00:00Z,28.8667,-90.4833,10.0,8.77,313.0,,'11111222,11111222,99999999' 
WAVCIS,ioos:station:WAVCIS:CSI06:1,2010-08-01T11:00:00Z,28.8667,-90.4833,10.0,7.42,316.0,,'11111222,11111222,99999999' 
WAVCIS,ioos:station:WAVCIS:CSI06:1,2010-08-01T12:00:00Z,28.8667,-90.4833,10.0,7.11,324.0,,'11111222,11111222,99999999' 
WAVCIS,ioos:station:WAVCIS:CSI06:1,2010-08-01T13:00:00Z,28.8667,-90.4833,10.0,7.23,331.0,,'11111222,11111222,99999999' 
WAVCIS,ioos:station:WAVCIS:CSI06:1,2010-08-01T14:00:00Z,28.8667,-90.4833,10.0,6.638,331.0,,'11111222,11111222,99999999' 
WAVCIS,ioos:station:WAVCIS:CSI06:1,2010-08-01T15:00:00Z,28.8667,-90.4833,10.0,3.533,348.0,,'11111222,11111222,99999999' 
WAVCIS,ioos:station:WAVCIS:CSI06:1,2010-08-01T16:00:00Z,28.8667,-90.4833,10.0,3.671,10.0,,'11111222,11111222,99999999' 
WAVCIS,ioos:station:WAVCIS:CSI06:1,2010-08-01T17:00:00Z,28.8667,-90.4833,10.0,2.437,13.0,,'11111222,11111222,99999999' 
WAVCIS,ioos:station:WAVCIS:CSI06:1,2010-08-01T18:00:00Z,28.8667,-90.4833,10.0,0.741,341.0,,'11111222,11111222,99999999' 
WAVCIS,ioos:station:WAVCIS:CSI06:1,2010-08-01T19:00:00Z,28.8667,-90.4833,10.0,0.053,304.0,,'11111222,11111222,99999999' 
WAVCIS,ioos:station:WAVCIS:CSI06:1,2010-08-01T20:00:00Z,28.8667,-90.4833,10.0,0.0,0.0,,'11111222,11111222,99999999' 
WAVCIS,ioos:station:WAVCIS:CSI06:1,2010-08-01T21:00:00Z,28.8667,-90.4833,10.0,0.0,0.0,,'11111222,11111222,99999999' 
WAVCIS,ioos:station:WAVCIS:CSI06:1,2010-08-01T22:00:00Z,28.8667,-90.4833,10.0,0.496,182.0,,'11111222,11111222,99999999' 
WAVCIS,ioos:station:WAVCIS:CSI06:1,2010-08-01T23:00:00Z,28.8667,-90.4833,10.0,1.102,215.0,,'11111222,11111222,99999999' 
WAVCIS,ioos:station:WAVCIS:CSI06:1,2010-08-02T00:00:00Z,28.8667,-90.4833,10.0,1.44,206.0,,'11111222,11111222,99999999' 
WAVCIS,ioos:station:WAVCIS:CSI06:1,2010-08-02T01:00:00Z,28.8667,-90.4833,10.0,1.931,224.0,,'11111222,11111222,99999999' 
WAVCIS,ioos:station:WAVCIS:CSI06:1,2010-08-02T02:00:00Z,28.8667,-90.4833,10.0,1.855,238.0,,'11111222,11111222,99999999' 
WAVCIS,ioos:station:WAVCIS:CSI06:1,2010-08-02T03:00:00Z,28.8667,-90.4833,10.0,1.69,238.0,,'11111222,11111222,99999999' 
WAVCIS,ioos:station:WAVCIS:CSI06:1,2010-08-02T04:00:00Z,28.8667,-90.4833,10.0,1.612,238.0,,'11111222,11111222,99999999' 
WAVCIS,ioos:station:WAVCIS:CSI06:1,2010-08-02T05:00:00Z,28.8667,-90.4833,10.0,1.803,256.0,,'11111222,11111222,99999999' 
WAVCIS,ioos:station:WAVCIS:CSI06:1,2010-08-02T06:00:00Z,28.8667,-90.4833,10.0,2.373,264.0,,'11111222,11111222,99999999' 
WAVCIS,ioos:station:WAVCIS:CSI06:1,2010-08-02T07:00:00Z,28.8667,-90.4833,10.0,2.836,303.0,,'11111222,11111222,99999999' 
WAVCIS,ioos:station:WAVCIS:CSI06:1,2010-08-02T08:00:00Z,28.8667,-90.4833,10.0,2.969,314.0,,'11111222,11111222,99999999' 
WAVCIS,ioos:station:WAVCIS:CSI06:1,2010-08-02T09:00:00Z,28.8667,-90.4833,10.0,3.571,313.0,,'11111222,11111222,99999999' 
WAVCIS,ioos:station:WAVCIS:CSI06:1,2010-08-02T10:00:00Z,28.8667,-90.4833,10.0,3.594,336.0,,'11111222,11111222,99999999' 
WAVCIS,ioos:station:WAVCIS:CSI06:1,2010-08-02T11:00:00Z,28.8667,-90.4833,10.0,4.955,333.0,,'11111222,11111222,99999999' 
WAVCIS,ioos:station:WAVCIS:CSI06:1,2010-08-02T12:00:00Z,28.8667,-90.4833,10.0,3.974,336.0,,'11111222,11111222,99999999' 
WAVCIS,ioos:station:WAVCIS:CSI06:1,2010-08-02T13:00:00Z,28.8667,-90.4833,10.0,4.398,336.0,,'11111222,11111222,99999999' 
WAVCIS,ioos:station:WAVCIS:CSI06:1,2010-08-02T14:00:00Z,28.8667,-90.4833,10.0,2.875,346.0,,'11111222,11111222,99999999' 
WAVCIS,ioos:station:WAVCIS:CSI06:1,2010-08-02T15:00:00Z,28.8667,-90.4833,10.0,3.904,343.0,,'11111222,11111222,99999999' 
WAVCIS,ioos:station:WAVCIS:CSI06:1,2010-08-02T16:00:00Z,28.8667,-90.4833,10.0,3.279,9.0,,'11111222,11111222,99999999' 
WAVCIS,ioos:station:WAVCIS:CSI06:1,2010-08-02T17:00:00Z,28.8667,-90.4833,10.0,2.345,19.0,,'11111222,11111222,99999999' 
WAVCIS,ioos:station:WAVCIS:CSI06:1,2010-08-02T18:00:00Z,28.8667,-90.4833,10.0,0.507,79.0,,'11111222,11111222,99999999' 
WAVCIS,ioos:station:WAVCIS:CSI06:1,2010-08-02T19:00:00Z,28.8667,-90.4833,10.0,1.568,91.0,,'11111222,11111222,99999999' 
WAVCIS,ioos:station:WAVCIS:CSI06:1,2010-08-02T20:00:00Z,28.8667,-90.4833,10.0,2.396,123.0,,'11111222,11111222,99999999' 
WAVCIS,ioos:station:WAVCIS:CSI06:1,2010-08-02T21:00:00Z,28.8667,-90.4833,10.0,3.23,139.0,,'11111222,11111222,99999999' 
WAVCIS,ioos:station:WAVCIS:CSI06:1,2010-08-02T22:00:00Z,28.8667,-90.4833,10.0,3.259,144.0,,'11111222,11111222,99999999' 
WAVCIS,ioos:station:WAVCIS:CSI06:1,2010-08-02T23:00:00Z,28.8667,-90.4833,10.0,3.147,138.0,,'11111222,11111222,99999999' 
WAVCIS,ioos:station:WAVCIS:CSI06:1,2010-08-03T00:00:00Z,28.8667,-90.4833,10.0,3.097,148.0,,'11111222,11111222,99999999' 
WAVCIS,ioos:station:WAVCIS:CSI06:1,2010-08-03T01:00:00Z,28.8667,-90.4833,10.0,3.844,140.0,,'11111222,11111222,99999999' 
WAVCIS,ioos:station:WAVCIS:CSI06:1,2010-08-03T02:00:00Z,28.8667,-90.4833,10.0,4.559,147.0,,'11111222,11111222,99999999' 
WAVCIS,ioos:station:WAVCIS:CSI06:1,2010-08-03T03:00:00Z,28.8667,-90.4833,10.0,4.608,156.0,,'11111222,11111222,99999999' 
WAVCIS,ioos:station:WAVCIS:CSI06:1,2010-08-03T04:00:00Z,28.8667,-90.4833,10.0,5.439,173.0,,'11111222,11111222,99999999' 
WAVCIS,ioos:station:WAVCIS:CSI06:1,2010-08-03T05:00:00Z,28.8667,-90.4833,10.0,4.855,177.0,,'11111222,11111222,99999999' 
WAVCIS,ioos:station:WAVCIS:CSI06:1,2010-08-03T06:00:00Z,28.8667,-90.4833,10.0,4.341,193.0,,'11111222,11111222,99999999' 
WAVCIS,ioos:station:WAVCIS:CSI06:1,2010-08-03T07:00:00Z,28.8667,-90.4833,10.0,3.967,193.0,,'11111222,11111222,99999999' 
WAVCIS,ioos:station:WAVCIS:CSI06:1,2010-08-03T08:00:00Z,28.8667,-90.4833,10.0,3.717,202.0,,'11111222,11111222,99999999' 
WAVCIS,ioos:station:WAVCIS:CSI06:1,2010-08-03T09:00:00Z,28.8667,-90.4833,10.0,3.099,210.0,,'11111222,11111222,99999999' 
WAVCIS,ioos:station:WAVCIS:CSI06:1,2010-08-03T10:00:00Z,28.8667,-90.4833,10.0,1.71,208.0,,'11111222,11111222,99999999' 
WAVCIS,ioos:station:WAVCIS:CSI06:1,2010-08-03T11:00:00Z,28.8667,-90.4833,10.0,3.032,216.0,,'11111222,11111222,99999999' 
WAVCIS,ioos:station:WAVCIS:CSI06:1,2010-08-03T12:00:00Z,28.8667,-90.4833,10.0,3.6,187.0,,'11111222,11111222,99999999' 
WAVCIS,ioos:station:WAVCIS:CSI06:1,2010-08-03T13:00:00Z,28.8667,-90.4833,10.0,2.742,201.0,,'11111222,11111222,99999999' 
WAVCIS,ioos:station:WAVCIS:CSI06:1,2010-08-03T14:00:00Z,28.8667,-90.4833,10.0,1.748,199.0,,'11111222,11111222,99999999' 
WAVCIS,ioos:station:WAVCIS:CSI06:1,2010-08-03T15:00:00Z,28.8667,-90.4833,10.0,0.69,144.0,,'11111222,11111222,99999999' 
WAVCIS,ioos:station:WAVCIS:CSI06:1,2010-08-03T16:00:00Z,28.8667,-90.4833,10.0,1.596,123.0,,'11111222,11111222,99999999' 
WAVCIS,ioos:station:WAVCIS:CSI06:1,2010-08-03T17:00:00Z,28.8667,-90.4833,10.0,1.694,168.0,,'11111222,11111222,99999999' 
WAVCIS,ioos:station:WAVCIS:CSI06:1,2010-08-03T18:00:00Z,28.8667,-90.4833,10.0,1.286,181.0,,'11111222,11111222,99999999' 
WAVCIS,ioos:station:WAVCIS:CSI06:1,2010-08-03T19:00:00Z,28.8667,-90.4833,10.0,3.143,28.0,,'11111222,11111222,99999999' 
WAVCIS,ioos:station:WAVCIS:CSI06:1,2010-08-03T20:00:00Z,28.8667,-90.4833,10.0,1.65,157.0,,'11111222,11111222,99999999' 
WAVCIS,ioos:station:WAVCIS:CSI06:1,2010-08-03T21:00:00Z,28.8667,-90.4833,10.0,3.376,164.0,,'11111222,11111222,99999999' 
WAVCIS,ioos:station:WAVCIS:CSI06:1,2010-08-03T22:00:00Z,28.8667,-90.4833,10.0,3.402,163.0,,'11111222,11111222,99999999' 
WAVCIS,ioos:station:WAVCIS:CSI06:1,2010-08-03T23:00:00Z,28.8667,-90.4833,10.0,2.573,164.0,,'11111222,11111222,99999999' 
WAVCIS,ioos:station:WAVCIS:CSI06:1,2010-08-04T00:00:00Z,28.8667,-90.4833,10.0,2.07,165.0,,'11111222,11111222,99999999' 
WAVCIS,ioos:station:WAVCIS:CSI06:1,2010-08-04T01:00:00Z,28.8667,-90.4833,10.0,2.453,196.0,,'11111222,11111222,99999999' 
WAVCIS,ioos:station:WAVCIS:CSI06:1,2010-08-04T02:00:00Z,28.8667,-90.4833,10.0,2.57,207.0,,'11111222,11111222,99999999' 
WAVCIS,ioos:station:WAVCIS:CSI06:1,2010-08-04T03:00:00Z,28.8667,-90.4833,10.0,2.409,191.0,,'11111222,11111222,99999999' 
WAVCIS,ioos:station:WAVCIS:CSI06:1,2010-08-04T04:00:00Z,28.8667,-90.4833,10.0,2.076,212.0,,'11111222,11111222,99999999' 
WAVCIS,ioos:station:WAVCIS:CSI06:1,2010-08-04T05:00:00Z,28.8667,-90.4833,10.0,3.622,217.0,,'11111222,11111222,99999999' 
WAVCIS,ioos:station:WAVCIS:CSI06:1,2010-08-04T06:00:00Z,28.8667,-90.4833,10.0,5.045,221.0,,'11111222,11111222,99999999' 
WAVCIS,ioos:station:WAVCIS:CSI06:1,2010-08-04T07:00:00Z,28.8667,-90.4833,10.0,3.174,229.0,,'11111222,11111222,99999999' 
WAVCIS,ioos:station:WAVCIS:CSI06:1,2010-08-04T08:00:00Z,28.8667,-90.4833,10.0,2.194,239.0,,'11111222,11111222,99999999' 
WAVCIS,ioos:station:WAVCIS:CSI06:1,2010-08-04T09:00:00Z,28.8667,-90.4833,10.0,3.32,291.0,,'11111222,11111222,99999999' 
WAVCIS,ioos:station:WAVCIS:CSI06:1,2010-08-04T10:00:00Z,28.8667,-90.4833,10.0,2.969,287.0,,'11111222,11111222,99999999' 
WAVCIS,ioos:station:WAVCIS:CSI06:1,2010-08-04T11:00:00Z,28.8667,-90.4833,10.0,3.239,279.0,,'11111222,11111222,99999999' 
WAVCIS,ioos:station:WAVCIS:CSI06:1,2010-08-04T12:00:00Z,28.8667,-90.4833,10.0,3.247,282.0,,'11111222,11111222,99999999' 
WAVCIS,ioos:station:WAVCIS:CSI06:1,2010-08-04T13:00:00Z,28.8667,-90.4833,10.0,2.46,279.0,,'11111222,11111222,99999999' 
WAVCIS,ioos:station:WAVCIS:CSI06:1,2010-08-04T14:00:00Z,28.8667,-90.4833,10.0,2.706,279.0,,'11111222,11111222,99999999' 
WAVCIS,ioos:station:WAVCIS:CSI06:1,2010-08-04T15:00:00Z,28.8667,-90.4833,10.0,3.791,315.0,,'11111222,11111222,99999999' 
WAVCIS,ioos:station:WAVCIS:CSI06:1,2010-08-04T16:00:00Z,28.8667,-90.4833,10.0,3.677,341.0,,'11111222,11111222,99999999' 
WAVCIS,ioos:station:WAVCIS:CSI06:1,2010-08-04T17:00:00Z,28.8667,-90.4833,10.0,2.432,351.0,,'11111222,11111222,99999999' 
WAVCIS,ioos:station:WAVCIS:CSI06:1,2010-08-04T18:00:00Z,28.8667,-90.4833,10.0,2.477,331.0,,'11111222,11111222,99999999' 
WAVCIS,ioos:station:WAVCIS:CSI06:1,2010-08-04T19:00:00Z,28.8667,-90.4833,10.0,1.403,306.0,,'11111222,11111222,99999999' 
WAVCIS,ioos:station:WAVCIS:CSI06:1,2010-08-04T20:00:00Z,28.8667,-90.4833,10.0,1.175,245.0,,'11111222,11111222,99999999' 
WAVCIS,ioos:station:WAVCIS:CSI06:1,2010-08-04T21:00:00Z,28.8667,-90.4833,10.0,2.242,253.0,,'11111222,11111222,99999999' 
WAVCIS,ioos:station:WAVCIS:CSI06:1,2010-08-04T22:00:00Z,28.8667,-90.4833,10.0,2.887,244.0,,'11111222,11111222,99999999' 
WAVCIS,ioos:station:WAVCIS:CSI06:1,2010-08-04T23:00:00Z,28.8667,-90.4833,10.0,2.032,257.0,,'11111222,11111222,99999999' 
WAVCIS,ioos:station:WAVCIS:CSI06:1,2010-08-05T00:00:00Z,28.8667,-90.4833,10.0,1.272,280.0,,'11111222,11111222,99999999' 
WAVCIS,ioos:station:WAVCIS:CSI06:1,2010-08-05T01:00:00Z,28.8667,-90.4833,10.0,2.709,245.0,,'11111222,11111222,99999999' 
WAVCIS,ioos:station:WAVCIS:CSI06:1,2010-08-05T02:00:00Z,28.8667,-90.4833,10.0,1.639,259.0,,'11111222,11111222,99999999' 
WAVCIS,ioos:station:WAVCIS:CSI06:1,2010-08-05T03:00:00Z,28.8667,-90.4833,10.0,1.393,228.0,,'11111222,11111222,99999999' 
WAVCIS,ioos:station:WAVCIS:CSI06:1,2010-08-05T04:00:00Z,28.8667,-90.4833,10.0,0.795,114.0,,'11111222,11111222,99999999' 
WAVCIS,ioos:station:WAVCIS:CSI06:1,2010-08-05T05:00:00Z,28.8667,-90.4833,10.0,4.407,239.0,,'11111222,11111222,99999999' 
WAVCIS,ioos:station:WAVCIS:CSI06:1,2010-08-05T06:00:00Z,28.8667,-90.4833,10.0,4.137,289.0,,'11111222,11111222,99999999' 
WAVCIS,ioos:station:WAVCIS:CSI06:1,2010-08-05T07:00:00Z,28.8667,-90.4833,10.0,4.699,338.0,,'11111222,11111222,99999999' 
WAVCIS,ioos:station:WAVCIS:CSI06:1,2010-08-05T08:00:00Z,28.8667,-90.4833,10.0,3.609,6.0,,'11111222,11111222,99999999' 
WAVCIS,ioos:station:WAVCIS:CSI06:1,2010-08-05T09:00:00Z,28.8667,-90.4833,10.0,2.685,23.0,,'11111222,11111222,99999999' 
WAVCIS,ioos:station:WAVCIS:CSI06:1,2010-08-05T10:00:00Z,28.8667,-90.4833,10.0,0.06,163.0,,'11111222,11111222,99999999' 
WAVCIS,ioos:station:WAVCIS:CSI06:1,2010-08-05T11:00:00Z,28.8667,-90.4833,10.0,7.47,234.0,,'11111222,11111222,99999999' 
WAVCIS,ioos:station:WAVCIS:CSI06:1,2010-08-05T12:00:00Z,28.8667,-90.4833,10.0,5.949,252.0,,'11111222,11111222,99999999' 
WAVCIS,ioos:station:WAVCIS:CSI06:1,2010-08-05T13:00:00Z,28.8667,-90.4833,10.0,5.726,277.0,,'11111222,11111222,99999999' 
WAVCIS,ioos:station:WAVCIS:CSI06:1,2010-08-05T14:00:00Z,28.8667,-90.4833,10.0,9.44,295.0,,'11111222,11111222,99999999' 
WAVCIS,ioos:station:WAVCIS:CSI06:1,2010-08-05T15:00:00Z,28.8667,-90.4833,10.0,3.552,324.0,,'11111222,11111222,99999999' 
WAVCIS,ioos:station:WAVCIS:CSI06:1,2010-08-05T16:00:00Z,28.8667,-90.4833,10.0,3.143,302.0,,'11111222,11111222,99999999' 
WAVCIS,ioos:station:WAVCIS:CSI06:1,2010-08-05T17:00:00Z,28.8667,-90.4833,10.0,1.762,292.0,,'11111222,11111222,99999999' 
WAVCIS,ioos:station:WAVCIS:CSI06:1,2010-08-05T18:00:00Z,28.8667,-90.4833,10.0,1.414,282.0,,'11111222,11111222,99999999' 
WAVCIS,ioos:station:WAVCIS:CSI06:1,2010-08-05T19:00:00Z,28.8667,-90.4833,10.0,3.598,280.0,,'11111222,11111222,99999999' 
WAVCIS,ioos:station:WAVCIS:CSI06:1,2010-08-05T20:00:00Z,28.8667,-90.4833,10.0,3.329,277.0,,'11111222,11111222,99999999' 
WAVCIS,ioos:station:WAVCIS:CSI06:1,2010-08-05T21:00:00Z,28.8667,-90.4833,10.0,1.635,282.0,,'11111222,11111222,99999999' 
WAVCIS,ioos:station:WAVCIS:CSI06:1,2010-08-05T22:00:00Z,28.8667,-90.4833,10.0,1.033,3.0,,'11111222,11111222,99999999' 
WAVCIS,ioos:station:WAVCIS:CSI06:1,2010-08-05T23:00:00Z,28.8667,-90.4833,10.0,0.454,71.0,,'11111222,11111222,99999999' 
WAVCIS,ioos:station:WAVCIS:CSI06:1,2010-08-06T00:00:00Z,28.8667,-90.4833,10.0,0.764,266.0,,'11111222,11111222,99999999' 
WAVCIS,ioos:station:WAVCIS:CSI06:1,2010-08-06T01:00:00Z,28.8667,-90.4833,10.0,0.996,264.0,,'11111222,11111222,99999999' 
WAVCIS,ioos:station:WAVCIS:CSI06:1,2010-08-06T02:00:00Z,28.8667,-90.4833,10.0,0.746,242.0,,'11111222,11111222,99999999' 
WAVCIS,ioos:station:WAVCIS:CSI06:1,2010-08-06T03:00:00Z,28.8667,-90.4833,10.0,0.787,226.0,,'11111222,11111222,99999999' 
WAVCIS,ioos:station:WAVCIS:CSI06:1,2010-08-06T04:00:00Z,28.8667,-90.4833,10.0,2.166,166.0,,'11111222,11111222,99999999' 
WAVCIS,ioos:station:WAVCIS:CSI06:1,2010-08-06T05:00:00Z,28.8667,-90.4833,10.0,2.5,197.0,,'11111222,11111222,99999999' 
WAVCIS,ioos:station:WAVCIS:CSI06:1,2010-08-06T06:00:00Z,28.8667,-90.4833,10.0,3.514,211.0,,'11111222,11111222,99999999' 
WAVCIS,ioos:station:WAVCIS:CSI06:1,2010-08-06T07:00:00Z,28.8667,-90.4833,10.0,3.399,221.0,,'11111222,11111222,99999999' 
WAVCIS,ioos:station:WAVCIS:CSI06:1,2010-08-06T08:00:00Z,28.8667,-90.4833,10.0,4.08,232.0,,'11111222,11111222,99999999' 
WAVCIS,ioos:station:WAVCIS:CSI06:1,2010-08-06T09:00:00Z,28.8667,-90.4833,10.0,3.781,238.0,,'11111222,11111222,99999999' 
WAVCIS,ioos:station:WAVCIS:CSI06:1,2010-08-06T10:00:00Z,28.8667,-90.4833,10.0,4.84,246.0,,'11111222,11111222,99999999' 
WAVCIS,ioos:station:WAVCIS:CSI06:1,2010-08-06T11:00:00Z,28.8667,-90.4833,10.0,4.734,270.0,,'11111222,11111222,99999999' 
WAVCIS,ioos:station:WAVCIS:CSI06:1,2010-08-06T12:00:00Z,28.8667,-90.4833,10.0,4.815,253.0,,'11111222,11111222,99999999' 
WAVCIS,ioos:station:WAVCIS:CSI06:1,2010-08-06T13:00:00Z,28.8667,-90.4833,10.0,4.276,318.0,,'11111222,11111222,99999999' 
WAVCIS,ioos:station:WAVCIS:CSI06:1,2010-08-06T14:00:00Z,28.8667,-90.4833,10.0,3.104,332.0,,'11111222,11111222,99999999' 
WAVCIS,ioos:station:WAVCIS:CSI06:1,2010-08-06T15:00:00Z,28.8667,-90.4833,10.0,3.177,332.0,,'11111222,11111222,99999999' 
WAVCIS,ioos:station:WAVCIS:CSI06:1,2010-08-06T16:00:00Z,28.8667,-90.4833,10.0,3.776,328.0,,'11111222,11111222,99999999' 
WAVCIS,ioos:station:WAVCIS:CSI06:1,2010-08-06T17:00:00Z,28.8667,-90.4833,10.0,3.624,310.0,,'11111222,11111222,99999999' 
WAVCIS,ioos:station:WAVCIS:CSI06:1,2010-08-06T18:00:00Z,28.8667,-90.4833,10.0,3.69,310.0,,'11111222,11111222,99999999' 
WAVCIS,ioos:station:WAVCIS:CSI06:1,2010-08-06T19:00:00Z,28.8667,-90.4833,10.0,3.892,288.0,,'11111222,11111222,99999999' 
WAVCIS,ioos:station:WAVCIS:CSI06:1,2010-08-06T20:00:00Z,28.8667,-90.4833,10.0,3.085,305.0,,'11111222,11111222,99999999' 
WAVCIS,ioos:station:WAVCIS:CSI06:1,2010-08-06T21:00:00Z,28.8667,-90.4833,10.0,2.239,257.0,,'11111222,11111222,99999999' 
WAVCIS,ioos:station:WAVCIS:CSI06:1,2010-08-06T22:00:00Z,28.8667,-90.4833,10.0,2.608,228.0,,'11111222,11111222,99999999' 
WAVCIS,ioos:station:WAVCIS:CSI06:1,2010-08-06T23:00:00Z,28.8667,-90.4833,10.0,2.802,233.0,,'11111222,11111222,99999999' 
WAVCIS,ioos:station:WAVCIS:CSI06:1,2010-08-07T00:00:00Z,28.8667,-90.4833,10.0,3.467,237.0,,'11111222,11111222,99999999' 
WAVCIS,ioos:station:WAVCIS:CSI06:1,2010-08-07T01:00:00Z,28.8667,-90.4833,10.0,4.352,255.0,,'11111222,11111222,99999999' 
WAVCIS,ioos:station:WAVCIS:CSI06:1,2010-08-07T02:00:00Z,28.8667,-90.4833,10.0,4.413,253.0,,'11111222,11111222,99999999' 
WAVCIS,ioos:station:WAVCIS:CSI06:1,2010-08-07T03:00:00Z,28.8667,-90.4833,10.0,4.65,240.0,,'11111222,11111222,99999999' 
WAVCIS,ioos:station:WAVCIS:CSI06:1,2010-08-07T04:00:00Z,28.8667,-90.4833,10.0,4.331,247.0,,'11111222,11111222,99999999' 
WAVCIS,ioos:station:WAVCIS:CSI06:1,2010-08-07T05:00:00Z,28.8667,-90.4833,10.0,3.991,261.0,,'11111222,11111222,99999999' 
WAVCIS,ioos:station:WAVCIS:CSI06:1,2010-08-07T06:00:00Z,28.8667,-90.4833,10.0,4.331,259.0,,'11111222,11111222,99999999' 
WAVCIS,ioos:station:WAVCIS:CSI06:1,2010-08-07T07:00:00Z,28.8667,-90.4833,10.0,4.228,255.0,,'11111222,11111222,99999999' 
WAVCIS,ioos:station:WAVCIS:CSI06:1,2010-08-07T08:00:00Z,28.8667,-90.4833,10.0,6.198,256.0,,'11111222,11111222,99999999' 
WAVCIS,ioos:station:WAVCIS:CSI06:1,2010-08-07T09:00:00Z,28.8667,-90.4833,10.0,6.086,246.0,,'11111222,11111222,99999999' 
WAVCIS,ioos:station:WAVCIS:CSI06:1,2010-08-07T10:00:00Z,28.8667,-90.4833,10.0,5.157,256.0,,'11111222,11111222,99999999' 
WAVCIS,ioos:station:WAVCIS:CSI06:1,2010-08-07T11:00:00Z,28.8667,-90.4833,10.0,6.369,298.0,,'11111222,11111222,99999999' 
WAVCIS,ioos:station:WAVCIS:CSI06:1,2010-08-07T12:00:00Z,28.8667,-90.4833,10.0,5.366,278.0,,'11111222,11111222,99999999' 
WAVCIS,ioos:station:WAVCIS:CSI06:1,2010-08-07T13:00:00Z,28.8667,-90.4833,10.0,4.536,281.0,,'11111222,11111222,99999999' 
WAVCIS,ioos:station:WAVCIS:CSI06:1,2010-08-07T14:00:00Z,28.8667,-90.4833,10.0,6.379,317.0,,'11111222,11111222,99999999' 
WAVCIS,ioos:station:WAVCIS:CSI06:1,2010-08-07T15:00:00Z,28.8667,-90.4833,10.0,4.718,325.0,,'11111222,11111222,99999999' 
WAVCIS,ioos:station:WAVCIS:CSI06:1,2010-08-07T16:00:00Z,28.8667,-90.4833,10.0,8.96,324.0,,'11111222,11111222,99999999' 
WAVCIS,ioos:station:WAVCIS:CSI06:1,2010-08-07T17:00:00Z,28.8667,-90.4833,10.0,1.949,9.0,,'11111222,11111222,99999999' 
WAVCIS,ioos:station:WAVCIS:CSI06:1,2010-08-07T18:00:00Z,28.8667,-90.4833,10.0,2.005,132.0,,'11111222,11111222,99999999' 
WAVCIS,ioos:station:WAVCIS:CSI06:1,2010-08-07T19:00:00Z,28.8667,-90.4833,10.0,0.013,192.0,,'11111222,11111222,99999999' 
WAVCIS,ioos:station:WAVCIS:CSI06:1,2010-08-07T20:00:00Z,28.8667,-90.4833,10.0,1.056,212.0,,'11111222,11111222,99999999' 
WAVCIS,ioos:station:WAVCIS:CSI06:1,2010-08-07T21:00:00Z,28.8667,-90.4833,10.0,3.179,76.0,,'11111222,11111222,99999999' 
WAVCIS,ioos:station:WAVCIS:CSI06:1,2010-08-07T22:00:00Z,28.8667,-90.4833,10.0,4.2,194.0,,'11111222,11111222,99999999' 
WAVCIS,ioos:station:WAVCIS:CSI06:1,2010-08-07T23:00:00Z,28.8667,-90.4833,10.0,4.784,239.0,,'11111222,11111222,99999999' 
WAVCIS,ioos:station:WAVCIS:CSI06:1,2010-08-08T00:00:00Z,28.8667,-90.4833,10.0,4.964,225.0,,'11111222,11111222,99999999' 
WAVCIS,ioos:station:WAVCIS:CSI06:1,2010-08-08T01:00:00Z,28.8667,-90.4833,10.0,5.249,217.0,,'11111222,11111222,99999999' 
WAVCIS,ioos:station:WAVCIS:CSI06:1,2010-08-08T02:00:00Z,28.8667,-90.4833,10.0,5.575,227.0,,'11111222,11111222,99999999' 
WAVCIS,ioos:station:WAVCIS:CSI06:1,2010-08-08T03:00:00Z,28.8667,-90.4833,10.0,4.795,233.0,,'11111222,11111222,99999999' 
WAVCIS,ioos:station:WAVCIS:CSI06:1,2010-08-08T04:00:00Z,28.8667,-90.4833,10.0,4.555,233.0,,'11111222,11111222,99999999' 
WAVCIS,ioos:station:WAVCIS:CSI06:1,2010-08-08T05:00:00Z,28.8667,-90.4833,10.0,4.87,229.0,,'11111222,11111222,99999999' 
WAVCIS,ioos:station:WAVCIS:CSI06:1,2010-08-08T06:00:00Z,28.8667,-90.4833,10.0,5.491,229.0,,'11111222,11111222,99999999' 
WAVCIS,ioos:station:WAVCIS:CSI06:1,2010-08-08T07:00:00Z,28.8667,-90.4833,10.0,5.609,227.0,,'11111222,11111222,99999999' 
WAVCIS,ioos:station:WAVCIS:CSI06:1,2010-08-08T08:00:00Z,28.8667,-90.4833,10.0,4.604,237.0,,'11111222,11111222,99999999' 
WAVCIS,ioos:station:WAVCIS:CSI06:1,2010-08-08T09:00:00Z,28.8667,-90.4833,10.0,4.245,241.0,,'11111222,11111222,99999999' 
WAVCIS,ioos:station:WAVCIS:CSI06:1,2010-08-08T10:00:00Z,28.8667,-90.4833,10.0,4.86,247.0,,'11111222,11111222,99999999' 
WAVCIS,ioos:station:WAVCIS:CSI06:1,2010-08-08T11:00:00Z,28.8667,-90.4833,10.0,4.366,255.0,,'11111222,11111222,99999999' 
WAVCIS,ioos:station:WAVCIS:CSI06:1,2010-08-08T12:00:00Z,28.8667,-90.4833,10.0,4.588,264.0,,'11111222,11111222,99999999' 
WAVCIS,ioos:station:WAVCIS:CSI06:1,2010-08-08T13:00:00Z,28.8667,-90.4833,10.0,4.255,279.0,,'11111222,11111222,99999999' 
WAVCIS,ioos:station:WAVCIS:CSI06:1,2010-08-08T14:00:00Z,28.8667,-90.4833,10.0,3.997,293.0,,'11111222,11111222,99999999' 
WAVCIS,ioos:station:WAVCIS:CSI06:1,2010-08-08T15:00:00Z,28.8667,-90.4833,10.0,2.806,296.0,,'11111222,11111222,99999999' 
WAVCIS,ioos:station:WAVCIS:CSI06:1,2010-08-08T16:00:00Z,28.8667,-90.4833,10.0,2.169,299.0,,'11111222,11111222,99999999' 
WAVCIS,ioos:station:WAVCIS:CSI06:1,2010-08-08T17:00:00Z,28.8667,-90.4833,10.0,1.256,282.0,,'11111222,11111222,99999999' 
WAVCIS,ioos:station:WAVCIS:CSI06:1,2010-08-08T18:00:00Z,28.8667,-90.4833,10.0,0.49,243.0,,'11111222,11111222,99999999' 
WAVCIS,ioos:station:WAVCIS:CSI06:1,2010-08-08T19:00:00Z,28.8667,-90.4833,10.0,1.7,215.0,,'11111222,11111222,99999999' 
WAVCIS,ioos:station:WAVCIS:CSI06:1,2010-08-08T20:00:00Z,28.8667,-90.4833,10.0,2.39,202.0,,'11111222,11111222,99999999' 
WAVCIS,ioos:station:WAVCIS:CSI06:1,2010-08-08T21:00:00Z,28.8667,-90.4833,10.0,3.681,228.0,,'11111222,11111222,99999999' 
WAVCIS,ioos:station:WAVCIS:CSI06:1,2010-08-08T22:00:00Z,28.8667,-90.4833,10.0,5.95,247.0,,'11111222,11111222,99999999' 
WAVCIS,ioos:station:WAVCIS:CSI06:1,2010-08-08T23:00:00Z,28.8667,-90.4833,10.0,4.399,244.0,,'11111222,11111222,99999999' 
WAVCIS,ioos:station:WAVCIS:CSI06:1,2010-08-09T00:00:00Z,28.8667,-90.4833,10.0,4.168,256.0,,'11111222,11111222,99999999' 
WAVCIS,ioos:station:WAVCIS:CSI06:1,2010-08-09T01:00:00Z,28.8667,-90.4833,10.0,3.825,271.0,,'11111222,11111222,99999999' 
WAVCIS,ioos:station:WAVCIS:CSI06:1,2010-08-09T02:00:00Z,28.8667,-90.4833,10.0,3.264,250.0,,'11111222,11111222,99999999' 
WAVCIS,ioos:station:WAVCIS:CSI06:1,2010-08-09T03:00:00Z,28.8667,-90.4833,10.0,3.454,256.0,,'11111222,11111222,99999999' 
WAVCIS,ioos:station:WAVCIS:CSI06:1,2010-08-09T04:00:00Z,28.8667,-90.4833,10.0,2.515,268.0,,'11111222,11111222,99999999' 